| time (UTC) | temp C | wind direction | speed KPH | gust KPH | rain 1hr cm | rain 24hr cm | rain mn cm | humidity % | barometer mb |
| 20260503050044 | 15 | 133 | 0.0 | 0.0 | 0.00 | 0.00 | 0.00 | 67 | 1011.2 |
| 20260503044559 | 16 | 133 | 0.0 | 0.0 | 0.00 | 0.00 | 0.00 | 66 | 1011.1 |
| 20260503043043 | 16 | 133 | 0.0 | 0.0 | 0.00 | 0.00 | 0.00 | 64 | 1010.9 |
| 20260503041557 | 17 | 133 | 0.0 | 0.0 | 0.00 | 0.00 | 0.00 | 63 | 1010.7 |
| 20260503040050 | 17 | 133 | 0.0 | 0.0 | 0.00 | 0.00 | 0.00 | 61 | 1010.5 |
| 20260503034541 | 18 | 133 | 0.0 | 0.0 | 0.00 | 0.00 | 0.00 | 61 | 1010.3 |
| 20260503033043 | 18 | 133 | 0.0 | 0.0 | 0.00 | 0.00 | 0.00 | 58 | 1010.0 |
| 20260503031540 | 19 | 133 | 0.0 | 0.0 | 0.00 | 0.00 | 0.00 | 56 | 1009.7 |
| 20260503030039 | 20 | 133 | 0.0 | 0.0 | 0.00 | 0.00 | 0.00 | 52 | 1009.6 |
| 20260503024540 | 21 | 133 | 0.0 | 0.0 | 0.00 | 0.00 | 0.00 | 50 | 1009.4 |
| 20260503023041 | 21 | 133 | 0.0 | 0.0 | 0.00 | 0.00 | 0.00 | 47 | 1009.2 |
| 20260503021540 | 22 | 133 | 0.0 | 0.0 | 0.00 | 0.00 | 0.00 | 45 | 1009.0 |
| 20260503020038 | 23 | 133 | 0.0 | 0.0 | 0.00 | 0.00 | 0.00 | 42 | 1009.0 |
| 20260503014546 | 24 | 133 | 0.0 | 0.0 | 0.00 | 0.00 | 0.00 | 38 | 1008.9 |
| 20260503013037 | 25 | 133 | 0.0 | 0.0 | 0.00 | 0.00 | 0.00 | 36 | 1008.9 |
| 20260503011537 | 25 | 133 | 0.0 | 0.0 | 0.00 | 0.00 | 0.00 | 35 | 1008.9 |
| 20260503010035 | 26 | 133 | 4.8 | 0.0 | 0.00 | 0.00 | 0.00 | 32 | 1008.9 |
| 20260503004533 | 27 | 133 | 6.4 | 0.0 | 0.00 | 0.00 | 0.00 | 29 | 1009.0 |
| 20260503003033 | 28 | 133 | 6.4 | 0.0 | 0.00 | 0.00 | 0.00 | 25 | 1009.0 |
| 20260503001532 | 28 | 131 | 9.7 | 0.0 | 0.00 | 0.00 | 0.00 | 24 | 1009.0 |
| 20260503000032 | 28 | 127 | 6.4 | 0.0 | 0.00 | 0.00 | 0.00 | 26 | 1009.1 |
| 20260502234536 | 29 | 126 | 3.2 | 0.0 | 0.00 | 0.00 | 0.00 | 22 | 1009.2 |
| 20260502233028 | 28 | 126 | 1.6 | 0.0 | 0.00 | 0.00 | 0.00 | 27 | 1009.4 |
| 20260502231526 | 28 | 126 | 0.0 | 0.0 | 0.00 | 0.00 | 0.00 | 23 | 1009.6 |
| 20260502230024 | 28 | 126 | 3.2 | 0.0 | 0.00 | 0.00 | 0.00 | 18 | 1009.8 |
| 20260502224521 | 28 | 126 | 3.2 | 0.0 | 0.00 | 0.00 | 0.00 | 19 | 1010.0 |
| 20260502223019 | 28 | 126 | 3.2 | 0.0 | 0.00 | 0.00 | 0.00 | 21 | 1010.2 |
| 20260502221516 | 28 | 126 | 4.8 | 0.0 | 0.00 | 0.00 | 0.00 | 23 | 1010.5 |
| 20260502220022 | 27 | 126 | 6.4 | 0.0 | 0.00 | 0.00 | 0.00 | 22 | 1010.7 |
| 20260502214512 | 28 | 126 | 3.2 | 0.0 | 0.00 | 0.00 | 0.00 | 22 | 1010.9 |
| 20260502213024 | 27 | 126 | 3.2 | 0.0 | 0.00 | 0.00 | 0.00 | 21 | 1011.2 |
| 20260502211507 | 27 | 126 | 3.2 | 0.0 | 0.00 | 0.00 | 0.00 | 18 | 1011.3 |
| 20260502210003 | 27 | 126 | 4.8 | 0.0 | 0.00 | 0.00 | 0.00 | 22 | 1011.5 |
| 20260502204610 | 26 | 126 | 1.6 | 0.0 | 0.00 | 0.00 | 0.00 | 20 | 1011.8 |
| 20260502203111 | 25 | 126 | 3.2 | 0.0 | 0.00 | 0.00 | 0.00 | 27 | 1012.0 |
| 20260502201553 | 25 | 126 | 4.8 | 0.0 | 0.00 | 0.00 | 0.00 | 32 | 1012.2 |
| 20260502200051 | 25 | 126 | 4.8 | 0.0 | 0.00 | 0.00 | 0.00 | 30 | 1012.6 |
| 20260502194553 | 25 | 126 | 1.6 | 0.0 | 0.00 | 0.00 | 0.00 | 29 | 1012.8 |
| 20260502193044 | 23 | 126 | 3.2 | 0.0 | 0.00 | 0.00 | 0.00 | 35 | 1013.0 |
| 20260502191543 | 23 | 124 | 3.2 | 0.0 | 0.00 | 0.00 | 0.00 | 36 | 1013.3 |
| 20260502190037 | 22 | 124 | 0.0 | 0.0 | 0.00 | 0.00 | 0.00 | 35 | 1013.6 |
| 20260502184538 | 21 | 124 | 1.6 | 0.0 | 0.00 | 0.00 | 0.00 | 39 | 1013.9 |
| 20260502183033 | 21 | 124 | 3.2 | 0.0 | 0.00 | 0.00 | 0.00 | 40 | 1014.0 |
| 20260502181531 | 20 | 123 | 1.6 | 0.0 | 0.00 | 0.00 | 0.00 | 42 | 1014.3 |
| 20260502163004 | 15 | 123 | 0.0 | 0.0 | 0.00 | 0.00 | 0.00 | 58 | 1015.7 |
| 20260502161601 | 15 | 123 | 0.0 | 0.0 | 0.00 | 0.00 | 0.00 | 59 | 1015.8 |
| 20260502151546 | 11 | 123 | 0.0 | 0.0 | 0.00 | 0.00 | 0.00 | 75 | 1016.5 |
| 20260502123037 | 7 | 124 | 0.0 | 0.0 | 0.00 | 0.00 | 0.00 | 84 | 1016.3 |
| 20260502121537 | 7 | 124 | 0.0 | 0.0 | 0.00 | 0.00 | 0.00 | 84 | 1016.3 |
| 20260502114536 | 7 | 124 | 0.0 | 0.0 | 0.00 | 0.00 | 0.00 | 84 | 1016.1 |
| 20260502113033 | 8 | 124 | 0.0 | 0.0 | 0.00 | 0.00 | 0.00 | 84 | 1016.1 |
| 20260502111531 | 8 | 124 | 0.0 | 0.0 | 0.00 | 0.00 | 0.00 | 84 | 1016.1 |
| 20260502110033 | 8 | 124 | 0.0 | 0.0 | 0.00 | 0.00 | 0.00 | 83 | 1016.0 |
| 20260502104529 | 8 | 124 | 0.0 | 0.0 | 0.00 | 0.00 | 0.00 | 82 | 1016.0 |
| 20260502103027 | 8 | 124 | 0.0 | 0.0 | 0.00 | 0.00 | 0.00 | 82 | 1015.9 |
| 20260502101525 | 8 | 124 | 0.0 | 0.0 | 0.00 | 0.00 | 0.00 | 82 | 1015.8 |
| 20260502091518 | 9 | 124 | 0.0 | 0.0 | 0.00 | 0.00 | 0.00 | 80 | 1015.6 |
| 20260502071504 | 11 | 124 | 0.0 | 0.0 | 0.00 | 0.00 | 0.00 | 76 | 1015.1 |
| 20260502064559 | 11 | 124 | 0.0 | 0.0 | 0.00 | 0.00 | 0.00 | 74 | 1014.8 |
| 20260502063059 | 12 | 124 | 0.0 | 0.0 | 0.00 | 0.00 | 0.00 | 72 | 1014.6 |
| 20260502061558 | 12 | 124 | 0.0 | 0.0 | 0.00 | 0.00 | 0.00 | 71 | 1014.5 |
| 20260502060101 | 12 | 124 | 0.0 | 0.0 | 0.00 | 0.00 | 0.00 | 70 | 1014.4 |
| 20260502054559 | 13 | 124 | 0.0 | 0.0 | 0.00 | 0.00 | 0.00 | 69 | 1014.3 |
| 20260502053102 | 13 | 124 | 0.0 | 0.0 | 0.00 | 0.00 | 0.00 | 66 | 1014.2 |
| 20260502051601 | 13 | 124 | 0.0 | 0.0 | 0.00 | 0.00 | 0.00 | 66 | 1014.2 |